[[{"header":{"parameterUnit":"m.s-1","parameterCategory":1,"la1":30.2991,"la2":30.254,"lo1":-89.0895,"lo2":-89.0444,"dy":0.0017,"dx":0.0017,"nx":28,"ny":28,"refTime":"2025-04-29T03:00:00:Z","depth":0,"parameterNumber":2,"parameterNumberName":"U-component_of_WINDS"},"data":[0,0,0,0,0,0,0,0,0,0,0,0,0,0,0,0,0,0,0,0,0,0,0,0,0,0,0,0,0,0,0,0,0,0,0,0,0,0,0,0,0,0,0,0,0,0,0,0,0,0,0,0,0,0,0,0,0,0,-2.2217,-2.2219,0,-2.2328,-2.233,-2.2331,-2.2348,-2.2347,-2.2346,-2.2345,-2.2454,-2.2458,-2.2462,0,0,0,0,0,0,0,0,0,0,0,0,0,-2.2017,-2.2021,-2.2217,-2.2219,-2.222,-2.2328,-2.233,-2.2331,-2.2348,-2.2347,-2.2345,-2.2344,-2.2453,-2.2457,-2.2462,0,0,0,0,0,0,0,0,0,0,0,0,0,-2.2114,-2.2022,-2.2217,-2.2242,-2.2245,-2.2328,-2.233,-2.2332,-2.2348,-2.2346,-2.2345,-2.2344,-2.2451,-2.2457,-2.2463,-2.2528,0,0,-2.248,-2.2483,0,0,0,0,0,0,0,0,-2.2108,-2.2121,-2.2237,-2.224,-2.2244,-2.2323,-2.2299,-2.2397,-2.2348,-2.2309,-2.2345,-2.2343,-2.2411,-2.242,-2.2444,-2.2533,-2.2538,-2.2481,-2.2484,-2.2487,-2.2488,0,0,0,0,0,0,0,-2.2101,-2.2116,-2.2261,-2.2238,-2.2243,-2.2246,-2.2258,-2.2318,-2.2367,-2.2312,-2.2314,-2.2327,-2.2413,-2.2439,-2.2447,-2.2539,-2.2481,-2.2486,-2.2489,-2.2492,-2.2688,-2.2689,0,0,0,0,0,0,-2.2091,-2.2111,-2.2258,-2.2264,-2.2171,-2.2251,-2.2264,-2.2299,-2.2366,-2.2375,-2.2328,-2.2327,-2.243,-2.244,-2.2451,-2.2532,-2.2487,-2.2492,-2.2495,-2.2686,-2.2688,-2.269,0,0,0,0,0,0,-2.2086,-2.2104,-2.2253,-2.2188,-2.2207,-2.2256,-2.2294,-2.2302,-2.2327,-2.2378,-2.2387,-2.2345,-2.2429,-2.2443,-2.2509,-2.2536,-2.2495,-2.25,-2.2684,-2.2687,-2.2689,-2.2694,0,0,0,0,0,0,-2.2081,-2.2102,-2.2128,-2.2189,-2.2211,-2.231,-2.2296,-2.2305,-2.2338,-2.2338,-2.2397,-2.2405,-2.2429,-2.25,-2.2515,-2.2543,-2.2504,-2.2682,-2.2685,-2.2688,-2.2692,-2.2697,-2.2701,0,0,0,0,0,-2.2073,-2.2124,-2.2129,-2.2147,-2.2244,-2.2312,-2.2324,-2.2352,-2.234,-2.2366,-2.2399,-2.2403,-2.2531,-2.2507,-2.2523,-2.2554,-2.268,-2.2684,-2.2688,-2.269,-2.2696,-2.2701,0,0,0,0,0,0,-2.2063,-2.2132,-2.2139,-2.2211,-2.2255,-2.2315,-2.2348,-2.2357,-2.2405,-2.2403,-2.2434,-2.2447,-2.2512,-2.254,-2.2512,-2.2621,-2.2604,-2.2612,-2.26,-2.2606,-2.2611,-2.2602,-2.2509,0,0,0,0,0,-2.207,-2.212,-2.2177,-2.2235,-2.2257,-2.2299,-2.2329,-2.2347,-2.2394,-2.2412,-2.245,-2.2495,-2.2545,-2.2577,-2.2626,-2.2697,-2.2709,-2.2726,-2.273,-2.2734,-2.2739,-2.2779,-2.2787,-2.2703,-2.2703,-2.2703,0,0,-2.2083,-2.2127,-2.2156,-2.2234,-2.2271,-2.2321,-2.2315,-2.2368,-2.2406,-2.242,-2.2486,-2.2515,-2.2567,-2.2635,-2.2667,-2.266,-2.2766,-2.2739,-2.2741,-2.2745,-2.2784,-2.2792,-2.2798,-2.2706,-2.2705,-2.2705,0,0,-2.2133,-2.2171,-2.2224,-2.2262,-2.2318,-2.2346,-2.2358,-2.2417,-2.2437,-2.2504,-2.2516,-2.2561,-2.2647,-2.2683,-2.2713,-2.2779,-2.2785,-2.2794,-2.2817,-2.2855,-2.2862,-2.2868,-2.2891,-2.2899,-2.28,-2.28,-2.28,0,-2.2141,-2.2219,-2.2249,-2.2303,-2.2337,-2.2355,-2.2408,-2.2442,-2.2511,-2.2534,-2.2526,-2.2635,-2.2671,-2.2749,-2.2765,-2.2788,-2.2803,-2.2787,-2.2859,-2.2865,-2.2871,-2.2893,-2.2902,-2.28,-2.28,-2.28,-2.28,0,-2.2227,-2.2281,-2.2317,-2.2385,-2.2423,-2.2476,-2.2514,-2.2548,-2.2563,-2.2591,-2.2659,-2.2703,-2.2762,-2.2781,-2.2795,-2.2861,-2.2855,-2.2853,-2.2836,-2.2879,-2.2901,-2.291,-2.2801,-2.2801,-2.2801,-2.2801,0,0,-2.2272,-2.2358,-2.2371,-2.2402,-2.2467,-2.2508,-2.2562,-2.2621,-2.265,-2.2698,-2.2743,-2.2817,-2.2815,-2.2849,-2.2867,-2.2901,-2.295,-2.2894,-2.2896,-2.2902,-2.3026,-2.3027,-2.3036,-2.2955,-2.2957,-2.2958,-2.3021,0,-2.233,-2.2428,-2.2457,-2.2539,-2.2589,-2.2607,-2.2654,-2.2699,-2.2727,-2.2773,-2.2803,-2.2855,-2.2849,-2.2869,-2.2904,-2.2937,-2.2975,-2.2933,-2.2997,-2.2998,-2.2983,-2.3048,-2.3049,-2.3107,-2.303,-2.3031,-2.3032,0,-2.2409,-2.246,-2.2547,-2.2606,-2.2628,-2.267,-2.2727,-2.2771,-2.2822,-2.284,-2.2879,-2.2895,-2.2951,-2.2933,-2.3011,-2.2981,-2.3009,-2.303,-2.3033,-2.3039,-2.3017,-2.3055,-2.3126,-2.3134,-2.3046,-2.3045,-2.3044,0,-2.2433,-2.2523,-2.2587,-2.2614,-2.2684,-2.2713,-2.2744,-2.2793,-2.2827,-2.2877,-2.2899,-2.2954,-2.2983,-2.3025,-2.3055,-2.3039,-2.3131,-2.3115,-2.3146,-2.3146,-2.3164,-2.3162,-2.3239,-2.3183,-2.3183,-2.3183,-2.3182,0,-2.2494,-2.2546,-2.2599,-2.2639,-2.2698,-2.2732,-2.2789,-2.282,-2.2864,-2.291,-2.2928,-2.297,-2.3008,-2.3054,-2.3078,-2.3139,-2.3152,-2.3168,-2.3174,-2.3166,-2.3164,-2.3184,-2.3181,-2.3185,-2.3184,-2.3184,-2.3184,0,-2.253,-2.2568,-2.2639,-2.2701,-2.2718,-2.2759,-2.2811,-2.285,-2.2879,-2.2936,-2.2951,-2.2997,-2.3053,-2.3088,-2.3159,-2.3175,-2.3242,-2.3246,-2.3225,-2.3227,-2.3257,-2.3254,-2.3349,-2.3363,-2.3298,-2.3299,-2.3299,0,-2.2566,-2.2607,-2.2674,-2.2706,-2.2738,-2.2789,-2.2825,-2.2859,-2.2895,-2.2956,-2.2987,-2.3045,-2.3093,-2.3182,-2.322,-2.3275,-2.328,-2.331,-2.3288,-2.328,-2.328,-2.3277,-2.3282,-2.3313,-2.3314,-2.3314,-2.3315,0,-2.2626,-2.2643,-2.2693,-2.2751,-2.2793,-2.284,-2.2886,-2.2912,-2.2954,-2.2993,-2.3052,-2.3089,-2.3162,-2.3219,-2.3277,-2.3307,-2.3318,-2.3321,-2.3332,-2.3324,-2.331,-2.3318,-2.3234,-2.3319,-2.3318,-2.3318,-2.3318,-2.3318,-2.2663,-2.2701,-2.2754,-2.281,-2.2849,-2.2893,-2.2932,-2.2968,-2.3017,-2.3081,-2.3098,-2.3159,-2.3209,-2.3288,-2.332,-2.3368,-2.3363,-2.3378,-2.3382,-2.3385,-2.3385,-2.3303,-2.3378,-2.3378,-2.3378,-2.3378,-2.3378,0,-2.2724,-2.2759,-2.2811,-2.2876,-2.292,-2.2928,-2.298,-2.3016,-2.307,-2.3117,-2.3164,-2.3232,-2.3287,-2.3331,-2.3388,-2.3418,-2.3424,-2.3432,-2.3429,-2.3436,-2.3386,-2.3371,-2.3426,-2.3426,-2.3426,-2.3425,-2.3425,-2.3425,-2.276,-2.2825,-2.2848,-2.2932,-2.2967,-2.3029,-2.3058,-2.3098,-2.3135,-2.321,-2.3257,-2.3286,-2.3331,-2.3392,-2.3443,-2.3455,-2.3474,-2.3481,-2.3493,-2.3445,-2.344,-2.3435,-2.3421,-2.3485,-2.3485,-2.354,-2.354,-2.354]},{"header":{"parameterUnit":"m.s-1","parameterCategory":1,"la1":30.2991,"la2":30.254,"lo1":-89.0895,"lo2":-89.0444,"dy":0.0017,"dx":0.0017,"nx":28,"ny":28,"refTime":"2025-04-29T03:00:00:Z","depth":0,"parameterNumber":3,"parameterNumberName":"V-component_of_WINDS"},"data":[0,0,0,0,0,0,0,0,0,0,0,0,0,0,0,0,0,0,0,0,0,0,0,0,0,0,0,0,0,0,0,0,0,0,0,0,0,0,0,0,0,0,0,0,0,0,0,0,0,0,0,0,0,0,0,0,0,0,3.5049,3.5049,0,3.5048,3.5048,3.5048,3.5002,3.5001,3.5,3.4999,3.4997,3.4998,3.4999,0,0,0,0,0,0,0,0,0,0,0,0,0,3.5013,3.5014,3.5049,3.5049,3.5049,3.5048,3.5048,3.5048,3.5003,3.5001,3.5,3.4999,3.4996,3.4998,3.4999,0,0,0,0,0,0,0,0,0,0,0,0,0,3.5022,3.5014,3.5049,3.5027,3.5025,3.5048,3.5048,3.5048,3.5003,3.5001,3.4999,3.4998,3.4996,3.4998,3.4999,3.5043,0,0,3.5004,3.5004,0,0,0,0,0,0,0,0,3.5021,3.5023,3.503,3.5028,3.5026,3.5023,3.5034,3.5046,3.5003,3.5011,3.4999,3.4997,3.5007,3.5008,3.5011,3.5043,3.5043,3.5004,3.5005,3.5005,3.5006,0,0,0,0,0,0,0,3.5021,3.5023,3.5049,3.503,3.5028,3.5016,3.5016,3.5036,3.5019,3.501,3.5007,3.5008,3.5006,3.501,3.5011,3.5043,3.5004,3.5005,3.5006,3.5007,3.5112,3.5113,0,0,0,0,0,0,3.5023,3.5023,3.5049,3.5049,3.5019,3.5018,3.5018,3.5026,3.5019,3.5016,3.5009,3.5005,3.5008,3.5009,3.501,3.5061,3.5005,3.5007,3.5008,3.511,3.5112,3.5114,0,0,0,0,0,0,3.5023,3.5026,3.5049,3.5035,3.5037,3.5021,3.5031,3.5027,3.5031,3.5018,3.5014,3.5016,3.5007,3.5008,3.5036,3.5061,3.5008,3.5009,3.5108,3.511,3.5113,3.5164,0,0,0,0,0,0,3.5022,3.5026,3.5043,3.5035,3.5038,3.5074,3.5032,3.5028,3.5034,3.5029,3.5024,3.5021,3.5005,3.5034,3.5037,3.5062,3.501,3.5105,3.5109,3.5112,3.516,3.5168,3.5175,0,0,0,0,0,3.5021,3.5057,3.5044,3.5047,3.5058,3.5076,3.5077,3.5058,3.5036,3.5053,3.5044,3.5021,3.5058,3.5037,3.504,3.5066,3.5104,3.5108,3.5112,3.5157,3.5167,3.5175,0,0,0,0,0,0,3.5067,3.5056,3.5041,3.5076,3.5077,3.5068,3.5088,3.507,3.5077,3.5072,3.5049,3.5048,3.5079,3.5075,3.5052,3.5108,3.5077,3.5082,3.5109,3.5119,3.5126,3.5126,3.5011,0,0,0,0,0,3.5082,3.5097,3.5086,3.5118,3.512,3.5104,3.5111,3.5097,3.5097,3.5097,3.509,3.5091,3.5103,3.5111,3.5121,3.516,3.5158,3.5179,3.5187,3.5193,3.5198,3.5218,3.5227,3.5128,3.5128,3.5128,0,0,3.5112,3.5107,3.5118,3.5128,3.5127,3.5143,3.5105,3.5123,3.5135,3.51,3.5125,3.512,3.512,3.5153,3.5167,3.5151,3.5225,3.5199,3.5204,3.5205,3.5223,3.5232,3.5241,3.5131,3.513,3.513,0,0,3.5174,3.5173,3.5199,3.5199,3.5199,3.5188,3.5195,3.5189,3.5184,3.5209,3.5183,3.5197,3.5217,3.5218,3.5221,3.5285,3.5263,3.5289,3.5328,3.5348,3.5356,3.5362,3.5384,3.5393,3.5293,3.5293,3.5293,0,3.5211,3.5235,3.5215,3.5236,3.524,3.521,3.5236,3.5237,3.524,3.5244,3.5226,3.5251,3.5248,3.5281,3.5297,3.5301,3.5307,3.5288,3.5356,3.5363,3.5369,3.539,3.5398,3.5296,3.5296,3.5296,3.5295,0,3.528,3.5297,3.5318,3.5322,3.5329,3.5352,3.5336,3.5346,3.5332,3.5323,3.5349,3.5345,3.5354,3.5361,3.5346,3.5392,3.5381,3.536,3.5327,3.5382,3.5401,3.5408,3.5301,3.5299,3.5299,3.5298,0,0,3.537,3.5364,3.5372,3.5373,3.5371,3.5383,3.5405,3.5414,3.5422,3.5426,3.5443,3.5462,3.5442,3.5446,3.5432,3.5449,3.5499,3.5426,3.5425,3.5439,3.5548,3.5563,3.5573,3.5486,3.5487,3.5489,3.5548,0,3.543,3.5467,3.5451,3.549,3.5505,3.5477,3.5496,3.5496,3.5489,3.5501,3.5493,3.5506,3.548,3.5482,3.5498,3.549,3.5521,3.5485,3.5501,3.5502,3.5501,3.5583,3.5599,3.5655,3.5555,3.5557,3.5558,0,3.5504,3.5511,3.5552,3.5547,3.5552,3.557,3.5576,3.5588,3.5588,3.5582,3.5586,3.5568,3.5589,3.5558,3.5587,3.5563,3.5569,3.5566,3.5568,3.5567,3.5532,3.5584,3.5673,3.5681,3.5569,3.5568,3.5567,0,3.5565,3.5585,3.5611,3.5613,3.5608,3.5621,3.562,3.5618,3.5625,3.5631,3.5635,3.5643,3.5647,3.5654,3.5639,3.5618,3.567,3.5637,3.5665,3.5665,3.5676,3.5675,3.5766,3.5681,3.5681,3.5681,3.5681,0,3.5633,3.5659,3.5639,3.5655,3.5683,3.5664,3.5692,3.5687,3.5687,3.5701,3.5678,3.5692,3.5672,3.5684,3.5672,3.5697,3.57,3.5695,3.5691,3.5696,3.5697,3.5699,3.5694,3.5683,3.5683,3.5682,3.5682,0,3.5705,3.5693,3.572,3.5714,3.5713,3.5733,3.5728,3.5742,3.5734,3.5753,3.5756,3.5743,3.5757,3.5743,3.5755,3.5747,3.5781,3.5772,3.5781,3.5778,3.5806,3.5803,3.59,3.5912,3.5821,3.5822,3.5823,0,3.5749,3.5768,3.5764,3.5772,3.5772,3.5786,3.5793,3.5775,3.5783,3.5785,3.5799,3.5811,3.5819,3.5841,3.5833,3.5842,3.5833,3.5866,3.5834,3.5839,3.5832,3.5831,3.5833,3.5872,3.5873,3.5874,3.5875,0,3.5827,3.582,3.5831,3.5839,3.5848,3.5854,3.5858,3.5866,3.5848,3.5857,3.5871,3.5877,3.589,3.5902,3.5909,3.5907,3.5888,3.5886,3.5892,3.5897,3.5901,3.5899,3.5798,3.5883,3.5882,3.5882,3.5881,3.5881,3.5886,3.5901,3.5901,3.5914,3.5915,3.5919,3.5933,3.5926,3.5938,3.5947,3.5936,3.5952,3.5952,3.596,3.596,3.5973,3.5959,3.5968,3.5971,3.5973,3.5977,3.59,3.5974,3.5974,3.5974,3.5973,3.5973,0,3.5962,3.5961,3.5973,3.5979,3.5989,3.5971,3.5975,3.5984,3.5999,3.6001,3.6009,3.6025,3.6036,3.6029,3.6039,3.605,3.6042,3.6053,3.6052,3.6052,3.599,3.5983,3.606,3.606,3.606,3.606,3.606,3.606,3.6003,3.6029,3.6022,3.6048,3.6046,3.6062,3.6066,3.607,3.6071,3.609,3.6099,3.6095,3.6093,3.6102,3.6111,3.6109,3.6113,3.6128,3.6122,3.6064,3.6056,3.6048,3.6041,3.6129,3.6129,3.6183,3.6183,3.6184]}]]